CAPE
2285 1936 1917 1619 1258 1141 1616 1283 2098 2105 4008 3311 3729 3208 3175 2970 3717 3618 3099 2837 2944 2787 3240 3424 3258 2997 2908 2863 2405 1979 1829 2162 1721 1561 2012 2021 3120 3281 2166 2277 2517 2225 1877
2398 2194 2046 2300 1675 1405 884 2044 2625 3407 2866 4310 3346 3799 3060 3021 3160 3277 3143 2147 2991 2843 3324 3426 3520 3046 3479 3264 3031 3229 3443 3721 3079 2589 2595 2243 2125 2211 3030 3414 3052 2009 1651
2446 2355 2244 2123 2208 1814 1086 1508 2408 2155 2806 2672 3699 3064 3339 2786 2748 2918 3270 3111 2928 3294 3314 3676 3511 3711 3863 3292 3364 2716 2256 2546 2586 2410 2183 2707 2849 3062 2677 3236 3560 2754 2212
2119 2216 2278 2215 2174 1882 1914 1158 1959 2837 2580 2767 2738 3177 3079 2880 2595 2480 3307 3195 3236 2924 3457 3145 3457 3562 3706 3941 3623 3481 3529 3670 3181 3200 2545 2290 2334 2492 2899 2776 2697 2990 2835
1634 1844 2190 2326 2199 2270 1929 2099 1865 2008 2490 2916 2915 3064 3117 2981 2604 2330 2346 3024 3180 3280 3159 3143 3253 3185 2888 3471 3416 3784 3692 3686 3415 3184 2928 2741 2722 2821 2581 2509 2593 2970 3082
1463 1694 1985 2207 2319 2430 2240 2246 2373 2340 2645 2915 3050 3078 3133 2901 2118 1408 1888 2092 3098 2985 2939 2942 3382 2189 1985 1960 1662 2022 2383 3239 3253 3522 3335 2887 2844 3041 3152 2954 2791 2501 2799
1821 1823 1905 2338 2297 2327 2504 2108 2595 2472 2632 2907 3060 3225 3243 3178 2107 786 662 1917 2053 2431 3082 2890 2921 2451 2305 3021 2066 1146 1089 1238 1198 2391 2650 2592 2454 2430 2569 3146 3152 3195 3174
1948 2360 2068 2349 2284 2509 2372 2509 2174 2605 2609 2963 3092 3237 3346 3409 2793 1154 6 1248 1920 2337 2554 2544 2887 2844 2744 3227 3280 3163 2710 2591 2265 1426 1548 2195 2500 2872 3257 3320 3404 3489 3101
2859 2234 2516 2071 2459 2523 2592 2553 2463 2514 2862 2862 3054 3331 3336 3382 2751 1834 18 920 1486 1812 1881 2111 2783 3058 2497 2184 1888 2189 2434 2660 2539 2358 2834 3029 2562 2184 2353 2708 2551 1798 2045
2274 2827 2839 2310 2601 2665 2676 2696 2672 2759 2779 3000 3077 3246 3276 3437 3146 916 74 1823 1751 1833 2221 2376 2048 1671 1781 1728 1977 2993 2942 2885 2864 2817 2882 2766 2182 1130 421 19 1186 2103 3059
2725 2498 3087 3567 2719 3121 3175 3161 3150 3103 3131 3337 3331 3351 3622 3451 3651 1450 0 2109 2052 2164 2091 2145 2392 2194 1663 1131 868 2271 2431 2517 2824 3115 3144 2800 3141 3821 3898 3791 3103 3335 3844
3482 3004 3670 3120 3518 3321 3612 3703 3545 3598 3573 3562 3616 3588 3464 3796 3137 1209 0 249 2194 2364 2217 2300 2226 1932 1238 876 47 415 1196 1009 1960 2235 2288 2515 2982 3370 3476 4289 4730 4258 3843
3487 3521 3558 4016 3654 3586 3880 3859 3899 3839 3686 3549 3606 3530 3629 3620 3804 2329 81 0 178 1996 2408 2253 895 964 16 0 0 5 19 565 1557 2273 2781 3209 3550 3693 4561 4584 4391 3543 2918
3296 4043 3663 4104 3919 3700 3688 3798 3856 3777 3783 3683 3394 3683 3526 3461 3501 3763 425 1 0 90 1387 2032 1521 1448 1352 1937 1904 24 347 2243 2924 3354 3555 3804 4000 4083 4121 4175 3538 2869 2566
4210 3976 3721 3760 3426 3839 3390 3740 3769 3746 3624 3617 3454 3173 3541 3271 2946 2879 2962 2117 1513 1042 1813 2233 2497 2450 2214 2596 3439 3909 2930 2976 3285 3419 3562 3767 3876 4058 3299 2942 2593 2874 2676
3526 3731 3637 3390 3545 3530 3456 2203 0 757 443 2004 2271 2787 335 31 0 0 0 1720 1709 1527 1718 2743 2862 2903 2976 2967 3211 3659 4000 3907 4221 4488 4642 4450 3773 2961 2881 3048 3027 2759 2408
1396 1436 3245 2780 3155 3311 3407 3401 2503 69 2 2 3 803 2347 226 17 71 586 244 4 376 2730 2425 3253 3684 3728 3830 4263 4375 4135 4230 4234 3820 4153 3277 2947 2892 3205 2832 2708 2452 2536
56 91 1003 1404 2735 3375 3396 3186 3192 2469 1987 999 1 0 2 2 3 383 289 1273 1371 1405 2743 3636 3928 4030 4011 4155 4478 4229 4184 4191 4368 4069 3915 3800 3571 3323 2793 2825 2830 2730 2005
9 4 16 705 736 1590 3489 3222 3477 3398 3186 3344 85 1 3 2 2 2 162 2193 3160 2677 2563 2524 2738 3538 4798 4360 3651 4195 3837 4013 4163 4052 3615 2782 2699 2899 2693 2370 1446 746 278
4 0 0 75 992 912 982 1331 1473 2038 1152 1883 1694 1540 323 141 810 661 338 546 1929 2478 3139 2433 3996 3776 3801 4002 3397 3703 3371 3246 2811 2503 2193 2026 2206 1274 656 824 816 910 935
5 0 0 67 185 510 752 398 156 817 450 763 1127 1075 138 739 2065 2259 1373 1415 1813 2276 2495 3108 3305 3093 2476 2619 2880 2354 2538 2028 2252 2272 1489 1077 1206 883 927 728 492 478 595
2 1 4 7 8 7 0 130 555 372 144 511 1706 341 120 303 2584 2717 2252 1804 830 333 339 1210 1431 1236 894 1005 1066 1176 1225 863 973 753 855 735 706 521 416 382 410 331 269
4 0 2 9 5 3 5 1 2 0 15 9 201 830 836 133 11 4 12 4 0 0 0 0 0 0 0 0 0 0 0 0 0 0 16 64 49 72 128 124 140 89 25
4 2 4 0 3 4 3 8 4 0 0 1 0 0 2 3 0 0 0 0 0 0 0 0 0 0 0 0 0 0 0 0 0 0 0 0 0 9 10 31 70 96 12
1 2 3 5 4 0 2 4 5 5 4 10 2 0 0 0 1 0 0 0 0 0 0 0 0 0 0 0 0 0 0 0 0 0 0 0 0 0 5 15 71 78 87
3 3 3 3 4 5 3 3 5 4 6 10 12 8 0 0 0 0 0 0 0 0 0 0 0 0 0 0 0 0 0 0 0 0 0 0 0 0 0 0 0 1 4
CIN
-3 -10 -12 -42 -56 -65 -28 -56 -33 -36 -10 -17 -4 -11 -11 -12 -6 -9 -18 -18 -20 -23 -18 -12 -22 -34 -27 -35 -49 -50 -41 -37 -50 -105 -77 -106 -61 -40 -131 -159 -158 -191 -189
-15 -7 -10 -5 -37 -53 -100 -18 -15 -8 -20 -5 -20 -7 -12 -6 -10 -9 -8 -14 -10 -13 -15 -16 -7 -5 -15 -42 -47 -49 -23 -18 -26 -44 -69 -118 -128 -150 -119 -115 -93 -134 -233
-11 -4 -1 -6 -11 -30 -91 -32 -10 -25 -18 -14 -5 -17 -8 -10 -11 -11 -9 -9 -15 -9 -10 -11 -13 -11 -13 -17 -22 -43 -57 -47 -66 -72 -121 -105 -99 -80 -90 -119 -117 -143 -195
-29 -28 -18 -27 -22 -40 -30 -98 -21 -9 -22 -15 -19 -8 -10 -9 -11 -9 -6 -6 -6 -10 -9 -14 -12 -12 -14 -14 -14 -25 -19 -21 -36 -39 -70 -96 -101 -127 -118 -90 -99 -96 -94
-53 -68 -71 -52 -34 -15 -27 -29 -42 -27 -15 -11 -16 -7 -8 -8 -12 -28 -21 -7 -9 -5 -9 -13 -13 -10 -7 -9 -8 -16 -21 -16 -13 -16 -30 -51 -60 -65 -87 -86 -65 -61 -70
-85 -89 -54 -39 -30 -17 -28 -12 -9 -14 -10 -7 -7 -11 -5 -10 -30 -79 -58 -37 -8 -9 -10 -16 -15 -17 -45 -36 -84 -59 -34 -36 -32 -25 -24 -38 -83 -57 -56 -57 -82 -136 -153
-93 -76 -94 -50 -49 -43 -22 -37 -12 -19 -13 -9 -8 -6 -9 -18 -43 -166 -214 -62 -52 -32 -15 -15 -8 -14 -24 -26 -82 -209 -253 -262 -322 -125 -110 -136 -173 -172 -145 -71 -54 -46 -55
-98 -51 -91 -76 -95 -44 -30 -19 -37 -10 -21 -14 -17 -15 -11 -14 -45 -167 -259 -150 -78 -56 -38 -39 -22 -30 -49 -32 -38 -36 -101 -123 -194 -387 -408 -285 -227 -155 -78 -64 -43 -30 -69
-32 -91 -80 -124 -91 -72 -47 -36 -35 -20 -10 -16 -24 -20 -23 -30 -63 -144 -74 -228 -118 -109 -102 -80 -44 -38 -91 -83 -139 -132 -127 -126 -120 -230 -165 -139 -233 -292 -232 -145 -145 -228 -180
-114 -77 -52 -93 -59 -76 -80 -57 -36 -29 -43 -24 -23 -25 -28 -40 -61 -348 -693 -102 -102 -101 -97 -108 -114 -167 -160 -184 -207 -94 -108 -155 -145 -151 -141 -149 -246 -531 -724 -487 -438 -215 -22
-79 -72 -43 -36 -87 -50 -41 -27 -21 -18 -14 -11 -10 -11 -10 -38 -39 -276 0 -123 -102 -87 -106 -125 -133 -173 -259 -352 -475 -213 -213 -204 -157 -117 -104 -141 -95 -36 -18 -58 -135 -58 -10
-42 -52 -21 -56 -27 -26 -27 -11 -15 -9 -7 -6 -6 -6 -10 -13 -62 -405 0 -233 -135 -94 -123 -132 -155 -162 -382 -515 -406 -718 -457 -530 -307 -241 -229 -197 -117 -59 -46 -30 -27 -37 -32
-31 -50 -43 -18 -17 -22 -15 -11 -5 -4 -3 -9 -3 -11 -4 -9 -15 -155 -828 0 -273 -203 -165 -159 -449 -464 -714 0 0 -103 -974 -749 -404 -242 -155 -91 -42 -33 -20 -23 -32 -70 -104
-43 -33 -41 -13 -10 -17 -11 -11 -8 -10 -6 -8 -20 -4 -20 -8 -7 -15 -649 -20 0 -371 -365 -245 -340 -353 -433 -338 -382 -159 -872 -292 -148 -77 -59 -37 -17 -19 -32 -23 -17 -63 -88
-12 -17 -17 -9 -26 -5 -20 -16 -15 -15 -24 -32 -32 -51 -11 -29 -45 -25 -77 -239 -358 -497 -298 -210 -171 -198 -239 -189 -87 -40 -189 -172 -114 -91 -61 -46 -22 -22 -58 -72 -78 -25 -33
-34 -3 -2 -4 -6 -11 -17 -200 0 -270 -547 -132 -113 -34 -434 -198 0 0 0 -265 -283 -335 -289 -124 -130 -127 -116 -117 -89 -43 -19 -33 -21 -10 -13 -6 -15 -50 -45 -29 -19 -25 -53
-195 -247 -6 -33 -17 -24 -12 -4 -81 -389 0 0 -29 -411 -124 -755 -657 -561 -684 -870 -32 -733 -158 -168 -79 -25 -20 -22 -6 -11 -11 -12 -29 -32 -16 -37 -35 -27 -5 -41 -40 -47 -42
-400 -621 -266 -230 -18 -14 -3 -2 -4 -59 -124 -339 0 0 0 0 0 -472 -490 -373 -322 -317 -119 -43 -32 -25 -13 -27 -29 -18 -32 -32 -14 -21 -17 -11 -8 -5 -27 -20 -24 -25 -70
0 -105 -554 -244 -305 -191 -22 -3 -5 -1 -8 -38 -639 0 0 0 0 0 -259 -104 -28 -88 -120 -127 -39 -3 -32 -48 -18 -13 -11 -9 -4 -2 -4 -25 -21 -14 -13 -31 -84 -186 -414
0 0 0 -433 -74 -221 -212 -173 -192 -74 -157 -94 -78 -109 -423 -478 -447 -486 -588 -418 -102 -40 -33 -9 -23 -71 -27 -20 -19 -3 -12 -5 -15 -16 -37 -65 -22 -92 -194 -153 -153 -135 -124
0 0 0 -334 -196 -152 -77 -213 -345 -114 -51 -76 -75 -177 -470 -311 -127 -124 -273 -285 -216 -94 -25 -17 -20 -22 -76 -63 -13 -27 -3 -13 -10 -9 -64 -141 -109 -131 -115 -157 -219 -202 -143
0 -1 0 0 0 0 0 -161 -126 -152 -200 -164 -67 -426 -492 -420 -15 -29 -66 -164 -453 -641 -261 -93 -53 -81 -204 -157 -82 -76 -45 -84 -56 -101 -105 -135 -140 -170 -190 -217 -208 -233 -283
0 0 0 0 0 0 0 0 0 0 -68 -73 -216 -122 -64 -275 -125 -209 -282 -338 0 0 0 0 0 0 0 0 0 0 0 0 0 0 -212 -419 -358 -358 -308 -330 -343 -352 -390
0 0 0 0 0 0 0 0 0 0 0 0 0 0 0 -1 0 0 0 0 0 0 0 0 0 0 0 0 0 0 0 0 0 0 0 0 -1 -10 -177 -400 -350 -315 -80
0 0 0 0 0 0 0 0 0 0 0 0 0 0 0 0 0 0 0 0 0 0 0 0 0 0 0 0 0 0 0 0 0 0 0 0 0 0 -5 -6 -287 -218 -166
0 0 0 0 0 0 0 0 0 0 0 0 0 0 0 0 0 0 0 0 0 0 0 0 0 0 0 0 0 0 0 0 0 0 0 0 0 0 0 0 0 -10 -16
Wind_Speed
21 19 18 17 17 15 11 12 10 9 5 6 5 6 9 8 6 6 7 4 10 7 6 5 7 7 3 3 2 3 3 3 3 4 2 4 3 2 5 6 6 5 6
21 19 20 18 18 17 15 14 12 10 9 5 7 6 7 7 8 7 9 8 8 7 7 6 7 6 6 5 3 5 3 2 1 4 2 4 5 7 7 7 7 9 7
20 20 19 19 19 19 18 15 15 13 10 11 8 9 8 9 8 9 9 9 8 9 9 8 7 6 5 5 5 5 4 4 4 3 5 5 5 5 6 6 6 8 7
22 21 20 21 20 19 17 18 15 13 14 13 12 11 11 10 10 10 10 10 9 9 7 8 7 7 7 6 6 6 6 5 5 4 5 5 6 7 4 3 4 2 5
20 22 22 20 19 18 18 18 17 17 14 14 13 13 13 12 11 11 10 10 11 10 9 9 8 9 10 9 7 7 7 7 6 7 7 5 3 3 4 4 4 4 6
18 20 17 18 18 18 18 16 17 17 16 15 15 15 14 11 14 15 14 11 10 11 11 10 8 9 14 13 12 11 8 7 8 6 7 8 6 6 4 6 9 11 11
17 17 18 18 19 19 17 18 17 18 16 16 16 15 15 15 14 17 18 12 11 10 10 10 10 10 11 11 15 17 15 14 15 12 12 11 11 10 8 9 8 8 9
17 15 17 17 20 18 18 17 17 15 17 16 16 16 15 14 16 14 16 14 12 11 11 12 11 11 9 7 11 11 11 12 12 10 13 14 13 10 10 10 10 10 8
15 18 17 19 18 19 19 19 16 16 15 16 16 17 17 15 17 17 12 9 12 12 11 10 9 11 14 14 10 10 9 8 9 14 14 14 17 16 14 7 9 9 10
20 16 15 17 16 18 19 18 16 16 16 14 16 16 17 16 16 18 16 11 12 10 10 12 14 16 13 11 10 11 11 11 10 10 8 9 9 9 14 10 7 8 8
16 16 15 15 18 17 16 15 15 16 15 15 15 14 16 16 16 18 19 14 12 10 11 11 11 18 19 18 15 13 14 12 10 6 7 7 7 6 7 7 8 7 6
15 16 14 16 13 14 16 15 15 15 15 14 15 12 13 14 17 15 19 21 15 12 12 11 11 15 21 23 18 18 17 8 6 7 8 8 8 8 9 5 1 1 2
9 16 15 14 15 13 15 15 13 14 13 14 12 12 12 12 12 18 21 21 20 13 12 7 7 4 4 7 11 9 8 5 7 7 8 8 8 8 3 1 1 2 4
12 14 14 13 14 14 11 13 13 13 13 13 13 12 11 10 10 11 10 11 18 15 11 9 7 5 4 5 1 5 5 7 7 7 8 7 6 3 1 2 2 5 6
12 12 12 11 12 13 14 12 13 14 14 13 12 12 10 11 12 12 14 11 11 12 10 9 9 9 9 8 7 7 7 7 7 8 8 7 5 1 0 2 5 5 6
7 9 10 10 11 11 12 7 12 3 5 11 8 8 5 11 9 10 8 15 18 16 8 8 8 9 9 9 9 8 8 8 5 5 5 3 1 2 4 5 4 5 6
9 10 6 11 11 12 12 12 9 4 9 9 10 9 10 14 13 12 14 17 12 12 7 8 8 8 8 9 7 3 3 4 5 3 4 3 3 5 5 4 6 6 7
12 9 6 8 8 12 12 12 11 10 8 5 4 6 7 9 9 9 8 9 5 3 5 5 6 6 6 5 6 6 4 4 5 6 5 4 5 4 5 6 6 7 4
10 7 7 6 6 5 6 13 9 12 11 7 7 3 4 8 11 9 5 3 3 6 4 5 9 6 3 2 3 4 4 3 2 2 2 2 4 5 7 5 4 4 3
10 12 7 5 3 6 4 4 4 7 4 7 5 6 7 7 4 5 6 6 4 3 3 13 4 2 2 2 2 1 3 3 3 3 3 4 4 3 3 3 4 3 4
9 6 12 6 3 3 3 1 2 3 10 8 5 5 7 4 5 7 8 8 7 5 1 2 3 2 4 4 2 3 4 5 4 5 5 4 4 3 2 3 5 6 3
7 7 10 11 9 9 9 9 4 3 3 3 2 5 9 5 3 5 3 4 10 13 7 4 1 2 4 4 3 2 2 2 1 2 3 4 4 3 4 4 3 4 4
8 11 10 9 10 10 11 11 12 11 10 7 5 1 5 10 8 8 11 13 11 12 8 9 10 9 10 8 9 10 10 8 7 8 7 3 4 4 4 3 3 3 3
11 12 10 9 9 11 11 13 9 14 15 12 13 13 13 11 9 12 11 12 12 11 11 11 10 14 13 13 12 11 9 8 7 6 7 6 5 5 4 5 5 6 6
12 11 12 11 11 11 10 11 11 11 12 11 8 13 11 10 11 10 9 10 12 12 14 12 8 12 16 17 16 15 12 13 9 8 5 6 7 10 6 5 6 7 7
12 13 11 10 11 11 11 10 10 11 11 9 9 9 11 10 10 11 12 13 12 13 13 10 13 18 17 14 15 13 9 11 11 9 6 4 5 4 6 6 6 4 6
Wind_Direction
189 193 194 193 202 206 208 210 195 223 231 186 182 176 179 193 203 186 230 251 189 204 240 214 197 233 272 307 334 252 229 220 231 281 276 326 350 282 267 248 226 238 243
190 190 195 195 196 199 212 199 204 196 204 215 187 193 193 198 202 202 207 238 189 208 224 230 217 204 220 260 275 279 287 267 263 282 286 300 281 269 246 239 233 237 239
189 193 194 199 196 202 201 215 197 203 208 205 203 195 202 203 212 207 208 216 244 207 215 210 222 222 225 213 234 245 261 256 246 244 263 246 248 256 266 259 236 239 249
186 193 198 198 201 199 197 202 208 197 200 209 210 205 205 206 212 215 204 212 222 237 227 222 224 225 226 219 228 244 267 282 275 270 274 267 254 257 248 273 312 283 251
190 193 198 199 201 197 201 197 203 205 206 205 208 213 204 209 209 209 215 214 216 224 233 225 228 225 229 225 223 226 233 243 250 256 258 256 274 346 323 295 293 309 316
191 194 193 195 195 205 201 202 197 205 203 204 207 210 210 211 210 201 200 216 216 214 226 238 242 225 231 234 233 240 238 252 269 277 286 287 291 298 311 315 309 303 304
190 190 191 189 198 201 201 200 203 200 205 204 207 210 213 215 209 204 200 207 215 222 219 224 230 235 221 223 227 235 241 239 231 249 260 262 267 265 277 279 278 273 283
190 190 189 191 193 196 201 204 205 203 205 204 207 210 213 214 207 205 202 208 212 216 216 223 225 233 241 224 227 229 228 236 235 231 233 245 250 255 247 250 259 263 278
193 197 192 194 190 192 199 203 202 204 206 211 211 210 212 217 201 202 183 207 219 222 225 233 234 225 227 236 249 254 258 258 242 227 234 233 231 242 247 269 273 280 278
201 201 196 192 192 195 199 201 203 205 210 209 215 214 213 217 205 201 189 215 220 222 226 232 228 234 237 223 221 232 245 249 254 266 276 263 241 236 237 214 244 249 269
198 202 193 191 196 193 195 197 200 207 209 212 216 218 216 216 218 197 192 208 220 219 226 227 227 216 226 228 214 233 238 247 252 253 269 273 268 261 262 232 218 224 250
193 196 201 197 192 193 191 197 203 203 209 211 214 218 219 219 211 198 193 206 212 222 227 227 228 217 213 219 220 227 234 237 258 264 263 260 257 257 260 262 163 333 254
259 190 199 189 196 197 193 197 201 205 209 211 212 213 221 213 216 201 195 204 215 220 231 233 107 98 208 218 220 227 201 213 231 239 248 251 247 256 195 176 114 333 291
229 189 190 187 192 198 202 196 203 203 206 210 212 212 212 224 214 200 203 207 218 217 232 238 238 247 262 294 146 184 205 200 214 236 248 252 257 236 324 42 306 305 286
197 180 186 193 188 197 208 201 205 211 209 205 209 212 206 212 219 220 190 194 202 206 200 224 237 242 249 244 230 211 191 205 219 236 245 250 260 52 316 274 255 247 248
293 180 188 197 193 198 200 188 47 54 129 191 164 206 98 87 87 92 79 194 176 154 189 209 213 225 228 225 226 228 226 203 224 238 226 255 232 226 247 241 224 237 257
352 354 229 200 202 196 200 209 180 78 57 52 59 79 112 140 106 98 101 94 94 141 178 199 216 223 218 225 217 185 217 213 219 237 234 203 214 231 221 222 234 243 250
352 6 7 330 227 190 195 204 193 179 171 150 55 127 126 116 123 152 140 104 133 192 200 201 227 220 220 199 207 187 194 216 213 205 202 219 230 221 229 240 241 241 244
340 352 5 343 346 1 196 203 191 189 188 145 129 108 102 106 138 116 91 322 268 214 184 197 237 245 95 355 257 179 235 232 199 171 193 217 246 259 263 250 258 245 199
330 355 325 302 318 43 23 74 51 97 112 131 157 157 162 192 173 169 175 176 208 288 278 260 256 151 191 186 145 134 266 213 184 220 216 224 232 246 273 279 298 275 239
313 350 311 5 358 31 262 306 318 102 253 137 130 141 218 225 188 180 174 175 164 155 230 324 352 80 102 109 175 185 221 229 203 220 217 201 222 221 278 267 256 262 286
3 336 24 29 5 33 27 3 246 258 262 311 94 155 174 200 245 194 140 84 78 60 14 341 307 90 65 68 21 308 291 333 68 22 13 21 5 2 306 326 338 344 358
18 19 27 28 16 24 35 31 42 22 22 328 245 123 87 63 36 42 73 69 51 72 53 34 21 35 20 42 31 28 31 20 359 359 3 2 327 325 320 328 302 290 280
26 38 31 33 31 40 38 32 22 47 30 7 43 59 79 71 67 57 52 63 73 64 60 63 50 46 32 30 23 26 17 356 333 338 352 316 291 228 223 244 249 255 262
23 33 35 30 31 54 49 42 36 37 55 356 8 52 47 50 55 52 58 60 65 60 56 50 49 56 51 42 31 20 359 338 329 327 294 279 286 291 291 265 249 260 280
35 36 36 39 41 37 48 48 46 47 36 48 351 46 57 56 45 44 49 55 60 60 58 46 44 51 53 42 28 6 360 352 348 303 271 271 309 333 1 336 319 309 294